Tracking 27107 objects as of 22-Mar-2023
HD Live streaming from Space Station
objects crossing your sky now

STARLINK-4179

Track STARLINK-4179 now!
10-day predictions
STARLINK-4179 is classified as:


NORAD ID: 53275
Int'l Code: 2022-086AK
Perigee: 546.2 km
Apogee: 547.6 km
Inclination: 53.2 °
Period: 95.4 minutes
Semi major axis: 6917 km
RCS: Unknown
Launch date: July 24, 2022
Source: United States (US)
Launch site: AIR FORCE EASTERN TEST RANGE (AFETR)
Your satellite tracking list
Your tracking list is empty




NASA's NSSDC Master Catalog

Two Line Element Set (TLE):
1 53275U 22086AK  23080.93833688  .00002945  00000-0  20302-3 0  9991
2 53275  53.2165   9.2669 0001018  75.9205 284.1900 15.08843822 37584
Source of the keplerian elements: AFSPC